Regional Weather Roundup
Issued by NWS

Home | Current Version | Previous Version | Text Only | Print | Product List | Glossary Off
Versions: 1 2 3 4 5 6 7 8 9 10 11 12 13 14 15 16 17 18 19 20 21 22 23 24 25 26 27 28 29 30 31 32 33 34 35 36 37 38 39 40 41 42 43 44 45 46 47 48 49 50

000
ASUS43 KDTX 220901
RWRMI
MICHIGAN HOURLY REGIONAL WEATHER ROUNDUP
NATIONAL WEATHER SERVICE DETROIT/PONTIAC MI
500 AM EDT MON SEP 22 2014

NOTE: "FAIR" INDICATES FEW OR NO CLOUDS BELOW 12,000 FEET WITH NO
SIGNIFICANT WEATHER AND/OR OBSTRUCTION TO VISIBILITY.

MIZ047>049-052>055-059>063-066>070-074>076-081>083-221000-
SOUTHEAST LOWER MICHIGAN

CITY           SKY/WX    TMP DP  RH WIND       PRES   REMARKS
ADRIAN         CLOUDY    47  38  71 N9        30.11R
ALMA           CLOUDY    46  41  83 W6        30.12R
ANN ARBOR      CLOUDY    47  38  71 N13       30.09R
BAD AXE        CLOUDY    47  40  76 NW10      30.06R
CARO           CLOUDY    47  40  75 NW6       30.07R
DETROIT CITY   CLOUDY    51  38  60 NW7       30.08R
DETROIT        CLOUDY    48  39  71 W7        30.09R
FLINT          CLOUDY    49  38  65 N7G17     30.10R
GROSSE ILE     CLOUDY    48  39  71 NW13      30.07R
HILLSDALE      CLOUDY    47  40  76 N7        30.12R
HOWELL         CLOUDY    46  37  73 NW5       30.10R

CITY           SKY/WX    TMP DP  RH WIND       PRES   REMARKS
JACKSON        CLOUDY    46  38  73 VRB6      30.12R
LAMBERTVILLE   CLOUDY    46  37  71 NW5       30.10R
LANSING        CLOUDY    46  39  76 NW5       30.12R
LAPEER         CLOUDY    46  40  78 NW7       30.07R
MASON          CLOUDY    46  38  73 NW9       30.11R
MONROE         CLOUDY    48  39  71 NW8       30.08R
MT. CLEMENS    CLOUDY    48  39  70 NW9       30.05R
PONTIAC        CLOUDY    47  37  68 NW10      30.07R
PORT HOPE        N/A     51  43  74 VRB5      30.03R
PORT HURON     CLOUDY    48  43  81 NW5       30.05R
TRI CITIES     CLOUDY    49  40  71 NW9       30.11R
TROY           CLOUDY    49  38  65 NW8       30.10R
SAGINAW HB     CLOUDY    48  39  71 NW9       30.09R
$$
MIZ043>046-050>051-056>058-064>065-071>073-077>080-221000-
SOUTHWEST LOWER MICHIGAN

CITY           SKY/WX    TMP DP  RH WIND       PRES   REMARKS
BATTLE CREEK   CLOUDY    47  38  71 N7        30.14R
BENTON HARBOR  CLOUDY    47  39  74 NE6       30.16R
BIG RAPIDS     PTCLDY    42  41  96 W5        30.12R
COLDWATER      CLOUDY    47  38  70 N10       30.13R
FREMONT        FAIR      41  38  91 CALM      30.14S
HOLLAND        CLEAR     47  38  71 CALM      30.16S
GRAND RAPIDS   PTCLDY    46  39  76 NW7       30.14S
IONIA          CLOUDY    46  40  80 NW6       30.12S
KALAMAZOO      CLOUDY    47  37  68 N12       30.15R
LUDINGTON      MOCLDY    47  43  87 CALM      30.15R
MARSHALL       CLOUDY    46  38  74 NW3       30.13R
MOUNT PLEASANT CLOUDY    46  41  82 W7        30.11R
MUSKEGON       PTCLDY    46  38  73 N3        30.16R
SOUTH HAVEN    PTCLDY    45  40  81 NE3       30.17R
$$
MIZ016>042-221000-
NORTHERN LOWER MICHIGAN

CITY           SKY/WX    TMP DP  RH WIND       PRES   REMARKS
ALPENA         CLOUDY    46  37  71 NW7       30.06R
BEAVER ISLAND  MOCLDY    46  38  74 NW5       30.13R
BELLAIRE       CLOUDY    47  41  78 CALM      30.12R
CADILLAC       CLOUDY    41  40  96 NW6       30.10R
CHARLEVOIX     CLOUDY    49  41  75 N12G21    30.14R
FRANKFORT      PTCLDY    48  39  72 N7        30.14R
GAYLORD        MOCLDY    41  36  82 VRB5      30.09R
GRAYLING       CLOUDY    43  41  93 NW5       30.10R
HARBOR SPRINGS CLOUDY    44  41  86 CALM      30.11R
HOUGHTON LAKE  CLOUDY    44  40  85 NW7       30.09R
MANISTEE       MOCLDY    45  37  76 NE3       30.15R
OSCODA         CLOUDY    46  41  82 NW5       30.06R
PELLSTON       CLOUDY    45  38  76 NW7       30.10R
ROGERS CITY    CLOUDY    46  39  76 N8        30.08R
TRAVERSE CITY  MOCLDY    48  38  68 N9        30.12R
$$
MIZ007>008-015-221000-
EASTERN UPPER MICHIGAN

CITY           SKY/WX    TMP DP  RH WIND       PRES   REMARKS
KINROSS        CLOUDY    43  37  81 CALM      30.08R
MACKINAC ISLAN CLOUDY    45  38  75 NW5       30.09R
NEWBERRY       PTCLDY    36  34  94 W6        30.10S WCI  31
S. S. MARIE    MOCLDY    44  33  65 NW6       30.07S
$$
MIZ004>006-011>014-085-221000-
CENTRAL UPPER MICHIGAN

CITY           SKY/WX    TMP DP  RH WIND       PRES   REMARKS
MANISTIQUE     CLEAR     35  34  97 NW3       30.12S
ESCANABA       CLEAR     36  32  87 W6        30.14S WCI  31
MENOMINEE      CLEAR     37  36  93 NW3       30.16R
SAWYER-GWINN   CLEAR     34  33  96 CALM      30.11S
$$
MIZ001>003-009>011-084-221000-
WESTERN UPPER MICHIGAN

CITY           SKY/WX    TMP DP  RH WIND       PRES   REMARKS
IRON MOUNTAIN  CLEAR     34  33  96 CALM      30.13R
HOUGHTON       PTCLDY    43  41  93 NW7       30.10S
COPPER HARBOR    N/A     44  38  79 W6        30.09S
IRONWOOD       CLOUDY    39  39 100 CALM      30.15R
$$

ABBREVIATIONS USED IN REMARKS
   TC - TEMPERATURE IN CELSIUS
  WCI - WIND CHILL INDEX
   HX - HEAT INDEX
  VSB - VISIBILITY



USA.gov is the U.S. government's official web portal to all federal, state and local government web resources and services.